Terminal Aerodrome Forecast
Issued by NWS San Angelo, TX

Home | Current Version | Previous Version | Text Only | Print | Product List | Glossary On
Versions: 1 2 3 4 5 6 7 8 9 10 11 12 13
000
FTUS44 KSJT 282300
TAFSJT
TAF
KSJT 282324Z 2900/2924 19012KT P6SM SKC
     FM291100 18010KT P6SM SCT015
     FM291500 20016G25KT P6SM SKC=

USA.gov is the U.S. government's official web portal to all federal, state and local government web resources and services.